Alexandria Esle, LA

4:32 AM CST on November 18, 2017 (GMT -0600)
Alexandria Esler Regional

Weather History for KESF - August, 2014

Change the Weather History Date:

Thursday, August 21, 2014

  Actual Average Record
Temperature  
Mean Temperature 83 °F -  
Max Temperature 95 °F 93 °F 102 °F (2011)
Min Temperature 73 °F 70 °F 62 °F (1961)
Cooling Degree Days 18    
Growing Degree Days 33 (Base 50)    
Moisture  
Dew Point 73 °F    
Average Humidity 81    
Maximum Humidity 94    
Minimum Humidity 56    
Precipitation  
Precipitation 1.33 in - - ()
Sea Level Pressure  
Sea Level Pressure 30.09 in    
Wind  
Wind Speed 3 mph (SSE)    
Max Wind Speed 22 mph    
Max Gust Speed 30 mph    
Visibility 9 miles    
Events Rain , Thunderstorm    
Averages and records for this station are not official NWS values.
T = Trace of Precipitation, MM = Missing Value Source: NWS Daily Summary

Daily Weather History Graph

Daily Weather History Graph

Search for Another Location

Airport or City:

Trip Planner

Search our weather history database for the weather conditions in past years. The results will help you decide how hot, cold, wet, or windy it might be!

Date:

Astronomy

Aug. 21, 2014 Rise Set
Actual Time 6:38 AM CDT 7:45 PM CDT
Civil Twilight 6:13 AM CDT 8:10 PM CDT
Nautical Twilight 5:43 AM CDT 8:40 PM CDT
Astronomical Twilight 5:12 AM CDT 9:11 PM CDT
Moon 3:15 AM CDT (8/21) 5:09 PM CDT (8/21)
Length of Visible Light 13h 57m
Length of Day
13h 07m
Waning Crescent, 13% of the Moon is Illuminated
Aug 21
Waning Crescent
Aug 25
New
Sep 2
First Quarter
Sep 8
Full
Sep 15
Last Quarter

Hourly Weather History & Observations

Time (CDT) Temp. Heat Index Dew Point Humidity Pressure Visibility Wind Dir Wind Speed Gust Speed Precip Events Conditions
12:53 AM 73.9 °F - 72.0 °F 93% 30.07 in 10.0 mi Calm Calm - N/A   Clear
1:53 AM 73.9 °F - 71.1 °F 91% 30.06 in 10.0 mi Calm Calm - N/A   Clear
2:53 AM 73.9 °F - 71.1 °F 91% 30.06 in 10.0 mi Calm Calm - N/A   Clear
3:53 AM 73.9 °F - 72.0 °F 93% 30.06 in 10.0 mi Calm Calm - N/A   Clear
4:51 AM 73.4 °F - 71.6 °F 94% 30.07 in 10.0 mi Calm Calm - N/A   Partly Cloudy
4:53 AM 73.9 °F - 72.0 °F 93% 30.07 in 10.0 mi Calm Calm - N/A   Partly Cloudy
5:53 AM 75.0 °F - 72.0 °F 90% 30.08 in 10.0 mi Calm Calm - N/A   Clear
6:21 AM 75.0 °F - 72.0 °F 90% 30.09 in 10.0 mi Calm Calm - N/A   Partly Cloudy
6:53 AM 75.0 °F - 73.0 °F 94% 30.10 in 10.0 mi Calm Calm - N/A   Clear
7:53 AM 78.1 °F - 73.9 °F 87% 30.12 in 10.0 mi Calm Calm - N/A   Clear
8:53 AM 82.0 °F 88.6 °F 75.0 °F 79% 30.12 in 10.0 mi SE 3.5 mph - N/A   Clear
9:53 AM 87.1 °F 98.8 °F 77.0 °F 72% 30.12 in 10.0 mi ESE 5.8 mph - N/A   Clear
10:53 AM 89.1 °F 101.4 °F 77.0 °F 67% 30.12 in 10.0 mi Variable 4.6 mph - N/A   Scattered Clouds
11:53 AM 91.0 °F 104.2 °F 77.0 °F 63% 30.12 in 10.0 mi South 6.9 mph - N/A   Mostly Cloudy
12:53 PM 93.0 °F 106.7 °F 77.0 °F 59% 30.10 in 10.0 mi South 6.9 mph - N/A   Scattered Clouds
1:25 PM 91.9 °F 103.9 °F 75.9 °F 59% 30.10 in 10.0 mi South 4.6 mph - N/A Thunderstorm Mostly Cloudy
1:40 PM 93.9 °F 106.9 °F 75.9 °F 56% 30.09 in 10.0 mi Variable 4.6 mph - N/A Thunderstorm Thunderstorm
1:53 PM 91.0 °F 102.9 °F 75.9 °F 61% 30.08 in 10.0 mi SSW 5.8 mph - N/A Thunderstorm Scattered Clouds
2:01 PM 93.9 °F 106.9 °F 75.9 °F 56% 30.08 in 10.0 mi Variable 4.6 mph - N/A   Partly Cloudy
2:40 PM 93.9 °F 106.9 °F 75.9 °F 56% 30.06 in 10.0 mi SE 5.8 mph - N/A Thunderstorm Partly Cloudy
2:48 PM 93.2 °F 105.0 °F 75.2 °F 56% 30.08 in 10.0 mi Calm Calm - N/A Thunderstorm Thunderstorm
2:53 PM 91.4 °F 105.1 °F 77.0 °F 63% 30.08 in 10.0 mi NNE 4.6 mph - N/A Thunderstorm Thunderstorm
3:22 PM 78.1 °F - 70.0 °F 76% 30.12 in 1.8 mi WSW 21.9 mph 29.9 mph 0.26 in Rain , Thunderstorm Heavy Thunderstorms and Rain
3:36 PM 77.0 °F - 69.1 °F 76% 30.12 in 1.0 mi South 11.5 mph 23.0 mph 0.96 in Rain , Thunderstorm Heavy Thunderstorms and Rain
3:44 PM 75.0 °F - 70.0 °F 84% 30.12 in 1.5 mi ENE 6.9 mph - 1.17 in Rain , Thunderstorm Heavy Thunderstorms and Rain
3:49 PM 73.4 °F - 69.8 °F 88% 30.10 in 3.0 mi NE 4.6 mph - N/A Rain , Thunderstorm Heavy Thunderstorms and Rain
3:53 PM 73.9 °F - 70.0 °F 87% 30.09 in 5.0 mi ENE 3.5 mph - 1.25 in Rain , Thunderstorm Heavy Thunderstorms and Rain
4:14 PM 75.0 °F - 71.1 °F 87% 30.15 in 10.0 mi SSW 10.4 mph - 0.04 in Rain , Thunderstorm Light Rain
4:24 PM 75.0 °F - 71.1 °F 87% 30.12 in 10.0 mi SW 11.5 mph 20.7 mph 0.05 in Rain , Thunderstorm Light Thunderstorms and Rain
4:39 PM 75.2 °F - 71.6 °F 89% 30.12 in 10.0 mi South 4.6 mph - N/A Rain , Thunderstorm Light Rain
4:53 PM 75.0 °F - 72.0 °F 90% 30.10 in 10.0 mi WNW 4.6 mph - 0.05 in Thunderstorm Partly Cloudy
5:22 PM 75.0 °F - 72.0 °F 90% 30.10 in 10.0 mi Calm Calm - 0.00 in Thunderstorm Thunderstorm
5:36 PM 75.0 °F - 72.0 °F 90% 30.09 in 10.0 mi Calm Calm - 0.00 in Rain Light Rain
5:53 PM 75.0 °F - 72.0 °F 90% 30.09 in 10.0 mi Calm Calm - 0.00 in Rain Light Rain
6:53 PM 75.0 °F - 72.0 °F 90% 30.11 in 10.0 mi Calm Calm - 0.02 in Rain Light Rain
7:53 PM 75.0 °F - 71.1 °F 87% 30.09 in 10.0 mi SSE 5.8 mph - 0.01 in   Partly Cloudy
8:53 PM 75.0 °F - 72.0 °F 90% 30.07 in 10.0 mi Calm Calm - N/A   Clear
9:53 PM 75.9 °F - 73.0 °F 91% 30.09 in 10.0 mi SSE 3.5 mph - N/A   Clear
10:53 PM 75.9 °F - 72.0 °F 87% 30.09 in 10.0 mi Calm Calm - N/A   Clear
11:53 PM 75.0 °F - 72.0 °F 90% 30.09 in 10.0 mi Calm Calm - N/A   Clear